{"data":{"norad_id":43587,"epoch":"2026-05-25T00:50:06.338112Z","epoch_age_seconds":86135,"freshness":"FRESH","line1":"1 43587U 18064A   26145.03479558 -.00000347  00000+0  00000+0 0  9998","line2":"2 43587   0.0180 283.4817 0001350 156.7556 282.9194  1.00271939 28642","mean_motion":1.00271939,"eccentricity":0.000135,"inclination_deg":0.018,"raan_deg":283.4817,"arg_perigee_deg":156.7556,"mean_anomaly_deg":282.9194,"bstar":0,"rev_number":2864,"period_min":1436.094698438,"perigee_km":35780.859556469,"apogee_km":35792.244022442,"semimajor_km":42164.688789456,"source":"CELESTRAK","updated_at":"2026-05-25T13:38:14.056064Z"}}